Weather History for KAFK - December, 2012

Change the Weather History Date:

Monday, December 24, 2012

  Actual Average (KSDA) Record (KSDA)
Temperature  
Mean Temperature 15 °F -  
Max Temperature 20 °F 32 °F 57 °F (1955)
Min Temperature 10 °F 13 °F -22 °F (1989)
Degree Days  
Heating Degree Days 50    
Moisture  
Dew Point 11 °F    
Average Humidity 79    
Maximum Humidity 98    
Minimum Humidity 71    
Precipitation  
Precipitation 0.00 in - - ()
Sea Level Pressure  
Sea Level Pressure 30.10 in    
Wind  
Wind Speed 12 mph (North)    
Max Wind Speed 20 mph    
Max Gust Speed 24 mph    
Visibility 9 miles    
Events Snow    
Averages and records for this station are not official NWS values.
T = Trace of Precipitation, MM = Missing Value Source: NWS Daily Summary

Daily Weather History Graph

Daily Weather History Graph

Search for Another Location

Airport or City:

Trip Planner

Search our weather history database for the weather conditions in past years. The results will help you decide how hot, cold, wet, or windy it might be!

Date:

Astronomy

Dec. 24, 2012 Rise Set
Actual Time 7:45 AM CST 5:01 PM CST
Civil Twilight 7:14 AM CST 5:32 PM CST
Nautical Twilight 6:39 AM CST 6:06 PM CST
Astronomical Twilight 6:06 AM CST 6:40 PM CST
Moon 2:29 PM CST (12/24) 4:24 AM CST (12/24)
Length of Visible Light 10h 18m
Length of Day
9h 16m
Waxing Gibbous, 88% of the Moon is Illuminated
Dec 24
Waxing Gibbous
Dec 28
Full
Jan 4
Last Quarter
Jan 11
New
Jan 18
First Quarter

Hourly Weather History & Observations

Time (CST) Temp. Windchill Dew Point Humidity Pressure Visibility Wind Dir Wind Speed Gust Speed Precip Events Conditions
12:15 AM 17.2 °F - 14.7 °F 90% 30.01 in 5.0 mi Calm Calm - N/A   Overcast
12:35 AM 17.4 °F 7.1 °F 14.9 °F 90% 30.01 in 5.0 mi North 8.1 mph - N/A   Overcast
12:55 AM 16.9 °F 4.1 °F 14.9 °F 92% 30.01 in 4.0 mi NNW 11.5 mph - N/A   Overcast
1:15 AM 15.8 °F 2.7 °F 14.7 °F 95% 30.01 in 4.0 mi NNW 11.5 mph - N/A   Mostly Cloudy
1:35 AM 16.7 °F 3.2 °F 16.2 °F 98% 30.00 in 3.0 mi NNW 12.7 mph - N/A   Overcast
1:55 AM 17.2 °F 6.0 °F 16.2 °F 96% 30.00 in 3.0 mi NNW 9.2 mph - N/A   Overcast
2:15 AM 17.2 °F 3.9 °F 15.6 °F 93% 30.01 in 5.0 mi NNW 12.7 mph - N/A   Overcast
2:35 AM 16.7 °F 2.6 °F 14.2 °F 90% 30.01 in 7.0 mi NNW 13.8 mph - N/A   Overcast
2:55 AM 16.7 °F 2.0 °F 13.3 °F 86% 30.01 in 7.0 mi NNW 15.0 mph - N/A   Overcast
3:15 AM 16.7 °F 0.5 °F 13.1 °F 86% 30.01 in 7.0 mi North 18.4 mph 24.2 mph N/A   Overcast
3:35 AM 16.7 °F 1.5 °F 13.1 °F 86% 30.01 in 7.0 mi NNW 16.1 mph - N/A   Overcast
3:55 AM 16.5 °F 1.3 °F 13.1 °F 86% 30.01 in 7.0 mi NNW 16.1 mph - N/A   Overcast
4:15 AM 16.5 °F 0.8 °F 12.9 °F 86% 30.03 in 7.0 mi NNW 17.3 mph - N/A   Overcast
4:35 AM 14.9 °F 0.3 °F 9.5 °F 79% 30.04 in 10.0 mi NNW 13.8 mph - N/A   Mostly Cloudy
4:55 AM 13.8 °F -1.1 °F 7.7 °F 77% 30.04 in 10.0 mi NNW 13.8 mph 24.2 mph N/A   Scattered Clouds
5:15 AM 13.1 °F -2.0 °F 7.7 °F 79% 30.04 in 10.0 mi NNW 13.8 mph 18.4 mph N/A   Scattered Clouds
5:35 AM 12.7 °F -1.1 °F 7.7 °F 80% 30.05 in 10.0 mi NNW 11.5 mph - N/A   Scattered Clouds
6:15 AM 12.0 °F -1.3 °F 7.2 °F 81% 30.05 in 10.0 mi NNW 10.4 mph - N/A   Clear
6:35 AM 11.7 °F -3.2 °F 6.8 °F 81% 30.04 in 10.0 mi North 12.7 mph 16.1 mph N/A   Scattered Clouds
6:55 AM 11.5 °F -0.2 °F 6.8 °F 81% 30.07 in 10.0 mi NW 8.1 mph - N/A   Scattered Clouds
7:15 AM 11.1 °F 1.7 °F 6.6 °F 82% 30.07 in 10.0 mi NNW 5.8 mph - N/A   Clear
7:35 AM 10.9 °F -0.8 °F 6.4 °F 82% 30.07 in 10.0 mi NW 8.1 mph - N/A   Clear
7:55 AM 10.8 °F -2.0 °F 6.6 °F 83% 30.07 in 10.0 mi WNW 9.2 mph - N/A   Clear
8:15 AM 10.8 °F -3.6 °F 6.4 °F 83% 30.08 in 10.0 mi NW 11.5 mph - N/A   Clear
8:35 AM 11.3 °F -2.2 °F 6.6 °F 81% 30.10 in 10.0 mi NW 10.4 mph - N/A   Clear
8:55 AM 12.4 °F -1.6 °F 7.5 °F 81% 30.10 in 10.0 mi NNW 11.5 mph - N/A   Scattered Clouds
9:15 AM 12.9 °F -2.8 °F 7.5 °F 79% 30.11 in 10.0 mi NNW 15.0 mph - N/A Snow Light Snow
9:35 AM 13.5 °F -1.5 °F 8.2 °F 80% 30.11 in 10.0 mi NNW 13.8 mph 19.6 mph N/A   Overcast
9:55 AM 15.1 °F 1.8 °F 9.5 °F 79% 30.11 in 10.0 mi NNW 11.5 mph - N/A   Mostly Cloudy
10:15 AM 16.2 °F 1.3 °F 10.2 °F 77% 30.12 in 10.0 mi NNW 15.0 mph - N/A Snow Light Snow
10:35 AM 16.5 °F 1.3 °F 10.4 °F 77% 30.13 in 10.0 mi NNW 16.1 mph - N/A   Overcast
10:55 AM 16.5 °F 1.8 °F 9.9 °F 75% 30.13 in 10.0 mi North 15.0 mph - N/A   Mostly Cloudy
11:15 AM 17.1 °F 2.5 °F 10.2 °F 75% 30.13 in 10.0 mi North 15.0 mph - N/A   Scattered Clouds
11:35 AM 17.6 °F 2.2 °F 10.6 °F 74% 30.12 in 10.0 mi NNW 17.3 mph - N/A   Clear
11:55 AM 18.1 °F 2.9 °F 10.8 °F 73% 30.11 in 10.0 mi North 17.3 mph - N/A   Scattered Clouds
12:15 PM 18.5 °F 2.4 °F 11.1 °F 73% 30.09 in 10.0 mi North 19.6 mph - N/A   Clear
12:35 PM 18.9 °F 4.3 °F 11.5 °F 73% 30.08 in 10.0 mi North 16.1 mph 23.0 mph N/A   Clear
12:55 PM 18.7 °F 4.0 °F 11.5 °F 74% 30.08 in 10.0 mi North 16.1 mph - N/A   Clear
1:15 PM 18.0 °F 4.8 °F 11.1 °F 75% 30.08 in 10.0 mi North 12.7 mph - N/A   Clear
1:35 PM 18.3 °F 4.1 °F 11.7 °F 75% 30.09 in 10.0 mi NNW 15.0 mph - N/A   Scattered Clouds
1:55 PM 18.9 °F 7.2 °F 11.8 °F 74% 30.10 in 10.0 mi North 10.4 mph - N/A   Scattered Clouds
2:15 PM 19.4 °F 8.6 °F 12.2 °F 74% 30.11 in 10.0 mi NNW 9.2 mph - N/A   Scattered Clouds
2:35 PM 19.4 °F 7.9 °F 12.4 °F 74% 30.11 in 10.0 mi NNW 10.4 mph - N/A   Scattered Clouds
2:55 PM 19.8 °F 9.1 °F 12.2 °F 72% 30.11 in 10.0 mi NNW 9.2 mph - N/A   Mostly Cloudy
3:15 PM 19.9 °F 7.9 °F 12.2 °F 72% 30.12 in 10.0 mi North 11.5 mph - N/A   Mostly Cloudy
3:35 PM 20.1 °F 8.1 °F 12.0 °F 71% 30.13 in 10.0 mi North 11.5 mph - N/A   Mostly Cloudy
3:55 PM 19.9 °F 7.9 °F 11.8 °F 71% 30.13 in 10.0 mi North 11.5 mph - N/A   Scattered Clouds
4:15 PM 19.4 °F 6.6 °F 11.5 °F 71% 30.14 in 10.0 mi North 12.7 mph - N/A   Scattered Clouds
4:35 PM 19.4 °F 7.9 °F 11.7 °F 72% 30.14 in 10.0 mi North 10.4 mph - N/A   Mostly Cloudy
4:55 PM 19.2 °F 6.4 °F 11.8 °F 73% 30.14 in 10.0 mi North 12.7 mph - N/A   Overcast
5:15 PM 19.2 °F 6.4 °F 12.2 °F 74% 30.14 in 10.0 mi NNE 12.7 mph - N/A   Overcast
5:35 PM 18.5 °F 5.5 °F 12.4 °F 77% 30.14 in 10.0 mi NNE 12.7 mph - N/A   Overcast
5:55 PM 18.3 °F 4.6 °F 12.0 °F 76% 30.14 in 10.0 mi NNE 13.8 mph - N/A   Overcast
6:15 PM 18.1 °F 2.9 °F 12.0 °F 77% 30.13 in 10.0 mi NNE 17.3 mph 21.9 mph N/A   Overcast
6:35 PM 18.0 °F 2.6 °F 12.2 °F 78% 30.13 in 10.0 mi NNE 17.3 mph - N/A   Overcast
6:55 PM 18.0 °F 4.8 °F 12.4 °F 79% 30.14 in 10.0 mi NNE 12.7 mph - N/A   Overcast
7:15 PM 18.0 °F 3.1 °F 12.6 °F 79% 30.12 in 10.0 mi NE 16.1 mph - N/A   Overcast
7:35 PM 18.1 °F 4.4 °F 12.4 °F 78% 30.14 in 10.0 mi NNE 13.8 mph - N/A   Overcast
7:55 PM 18.1 °F 2.4 °F 11.8 °F 76% 30.14 in 10.0 mi NE 18.4 mph 21.9 mph N/A   Overcast
8:15 PM 18.0 °F 3.1 °F 11.8 °F 77% 30.14 in 10.0 mi NE 16.1 mph - N/A   Overcast
8:35 PM 17.8 °F 4.0 °F 12.0 °F 78% 30.14 in 10.0 mi NE 13.8 mph - N/A   Overcast
8:55 PM 17.6 °F 3.2 °F 12.0 °F 79% 30.14 in 10.0 mi NE 15.0 mph - N/A   Overcast
9:15 PM 17.6 °F 4.3 °F 11.8 °F 78% 30.16 in 10.0 mi NNE 12.7 mph - N/A   Mostly Cloudy
9:35 PM 17.6 °F 2.7 °F 11.8 °F 78% 30.16 in 10.0 mi NNE 16.1 mph - N/A   Overcast
9:55 PM 17.4 °F 3.5 °F 11.8 °F 79% 30.17 in 10.0 mi NNE 13.8 mph - N/A   Overcast
10:15 PM 17.4 °F 3.5 °F 11.8 °F 79% 30.18 in 10.0 mi NNE 13.8 mph - N/A   Overcast
10:35 PM 17.2 °F 2.7 °F 11.7 °F 79% 30.19 in 10.0 mi NNE 15.0 mph - N/A   Overcast
10:55 PM 17.1 °F 2.0 °F 11.3 °F 78% 30.19 in 10.0 mi NNE 16.1 mph - N/A   Overcast
11:15 PM 16.7 °F 2.6 °F 10.9 °F 78% 30.20 in 10.0 mi NNE 13.8 mph - N/A   Overcast
11:35 PM 16.5 °F 1.8 °F 10.4 °F 77% 30.21 in 10.0 mi NNE 15.0 mph - N/A   Overcast
11:55 PM 16.3 °F 1.0 °F 10.4 °F 77% 30.21 in 10.0 mi NNE 16.1 mph - N/A   Overcast